Location: ?????
(31.8092°N, 35.2590°E)
Time: 20:08:28
(UTC+00:00)

Cosmos 1455 Rocket - Pass Details

Date: 18 October 2021
Orbit: 604 x 630 km, 82.5° (Epoch: 04 December)

Event Time Altitude Azimuth Distance (km) Brightness Sun altitude
Rises 02:56:27 0° 3° (N) 2,923 6.5 -10.9°
Reaches altitude 10° 02:58:50 10° 11° (NNE) 2,010 5.8 -10.4°
Maximum altitude 03:02:59 38° 80° (E) 957 4.7 -9.5°
Drops below altitude 10° 03:07:06 10° 149° (SSE) 1,988 6.2 -8.7°
Sets 03:09:26 0° 157° (SSE) 2,887 6.9 -8.2°
